SOYUZ-MS 06 (42937 NORAD) Tracking and Keplerian Element Data

This shows tracking and keplerian element data for the satellite.

Feedback or suggestion? Click here.




ElementValue
Catalog42937
NameSOYUZ-MS 06
Epoch Orbit10148
Epoch Day58.64801626
Epoch Year2018
RAAN204.7914
Inclination51.6402
Eccentricity0.0003113
Argument of Perigee133.9046
Mean Anonmoly319.3314
Mean Motion15.54160216
Decay Rate2.063E-05
L11 42937U 17054A 18058.64801626 .00002063 00000-0 38351-4 0 9992
L22 42937 51.6402 204.7914 0003113 133.9046 319.3314 15.54160216101485



Live tracking and technical data element details for SOYUZ-MS 06 (NORAD 42937). SOYUZ-MS 06 can be tracked NOW for your location showing map with azimuth and elevation plus other details from your city location.







IsCatalogInMostPopularTable: catalog: 42937, numindb: 683
Update: records affected: 1



GetName: 42937 SOYUZ-MS 06

Hit Count: updated at: Fri, 14 Jun 2024 19:58:08 GMT